Weather History for Kansas City International, MO

Change the Weather History Date:

Saturday, August 9, 2014

  Actual Average Record
Temperature  
Mean Temperature 75 °F 78 °F  
Max Temperature 84 °F 88 °F 110 °F (1936)
Min Temperature 66 °F 68 °F 55 °F (1927)
Degree Days  
Heating Degree Days 0 0  
Month to date heating degree days 0 0  
Since 1 June heating degree days 3 9  
Since 1 July heating degree days 2 0  
Cooling Degree Days 10 13  
Month to date cooling degree days 108 118  
Year to date cooling degree days 832 914  
Since 1 June cooling degree days 671 798  
Growing Degree Days 25 (Base 50)    
Moisture  
Dew Point 67 °F    
Average Humidity 78    
Maximum Humidity 93    
Minimum Humidity 62    
Precipitation  
Precipitation 0.00 in 0.12 in 1.04 in (1986)
Month to date precipitation 4.22 1.08  
Year to date precipitation 22.79 24.59  
Snow  
Snow 0.00 in 0.00 in 0.00 in ()
Month to date snowfall 0.0 0.0  
Since 1 June snowfall 0.0 0.0  
Since 1 July snowfall 0.0 0.0  
Snow Depth 0.00 in    
Sea Level Pressure  
Sea Level Pressure 29.99 in    
Wind  
Wind Speed 5 mph (East)    
Max Wind Speed 13 mph    
Max Gust Speed 15 mph    
Visibility 9 miles    
Events      
T = Trace of Precipitation, MM = Missing Value Source: NWS Daily Summary

Daily Weather History Graph

Daily Weather History Graph

Search for Another Location

Airport:

Trip Planner

Search our weather history database for the weather conditions in past years. The results will help you decide how hot, cold, wet, or windy it might be!

Date:

Astronomy

Aug. 09, 2014 Rise Set
Actual Time 6:26 AM CDT 8:21 PM CDT
Civil Twilight 5:57 AM CDT 8:50 PM CDT
Nautical Twilight 5:21 AM CDT 9:26 PM CDT
Astronomical Twilight 4:43 AM CDT 10:04 PM CDT
Moon 7:24 PM CDT (8/9) 5:07 AM CDT (8/9)
Length of Visible Light 14h 53m
Length of Day
13h 55m
Waxing Gibbous, 98% of the Moon is Illuminated
Aug 9
Waxing Gibbous
Aug 10
Full
Aug 17
Last Quarter
Aug 25
New
Sep 2
First Quarter

Hourly Weather History & Observations

Time (CDT) Temp. Heat Index Dew Point Humidity Pressure Visibility Wind Dir Wind Speed Gust Speed Precip Events Conditions
12:53 AM 69.1 °F - 66.0 °F 90% 29.98 in 10.0 mi East 3.5 mph - N/A   Clear
1:53 AM 68.0 °F - 64.9 °F 90% 29.98 in 10.0 mi Calm Calm - N/A   Clear
2:53 AM 66.9 °F - 64.9 °F 93% 29.96 in 7.0 mi NE 4.6 mph - N/A   Partly Cloudy
3:27 AM 66.0 °F - 64.9 °F 96% 30.00 in 5.0 mi NE 3.5 mph - N/A   Overcast
3:53 AM 68.0 °F - 66.0 °F 93% 29.97 in 6.0 mi ENE 3.5 mph - N/A   Overcast
4:46 AM 68.0 °F - 66.0 °F 93% 30.00 in 8.0 mi East 6.9 mph - N/A   Overcast
4:53 AM 69.1 °F - 66.0 °F 90% 29.97 in 8.0 mi ENE 6.9 mph - N/A   Overcast
5:53 AM 69.1 °F - 66.0 °F 90% 29.99 in 10.0 mi South 3.5 mph - N/A   Overcast
6:53 AM 69.1 °F - 66.0 °F 90% 30.03 in 7.0 mi NNW 8.1 mph - N/A   Overcast
7:53 AM 70.0 °F - 66.9 °F 90% 29.97 in 10.0 mi ESE 11.5 mph - N/A   Mostly Cloudy
8:53 AM 71.1 °F - 66.9 °F 87% 29.98 in 10.0 mi SE 8.1 mph - N/A   Overcast
9:53 AM 72.0 °F - 66.9 °F 84% 30.00 in 10.0 mi SE 5.8 mph - N/A   Mostly Cloudy
10:53 AM 75.9 °F - 66.9 °F 74% 30.02 in 10.0 mi Calm Calm - N/A   Mostly Cloudy
12:53 PM 79.0 °F - 68.0 °F 69% 30.01 in 10.0 mi Variable 3.5 mph - N/A   Overcast
1:45 PM 79.0 °F - 68.0 °F 69% 30.03 in 10.0 mi ENE 4.6 mph - N/A   Overcast
1:53 PM 79.0 °F - 68.0 °F 69% 30.01 in 10.0 mi Calm Calm - N/A   Overcast
2:53 PM 81.0 °F 83.8 °F 68.0 °F 65% 29.99 in 10.0 mi NE 3.5 mph - N/A   Mostly Cloudy
3:53 PM 81.0 °F 83.8 °F 68.0 °F 65% 29.97 in 10.0 mi Calm Calm - N/A   Mostly Cloudy
4:53 PM 82.9 °F 87.0 °F 70.0 °F 65% 29.97 in 10.0 mi NNE 3.5 mph - N/A   Mostly Cloudy
5:53 PM 82.9 °F 85.8 °F 68.0 °F 60% 29.96 in 10.0 mi Calm Calm - N/A   Mostly Cloudy
6:53 PM 81.0 °F 83.8 °F 68.0 °F 65% 29.97 in 10.0 mi ENE 6.9 mph - N/A   Scattered Clouds
7:53 PM 80.1 °F 82.3 °F 66.9 °F 64% 29.97 in 10.0 mi ESE 6.9 mph - N/A   Partly Cloudy
8:53 PM 75.9 °F - 68.0 °F 76% 29.95 in 10.0 mi SE 5.8 mph - N/A   Partly Cloudy
9:53 PM 75.2 °F - 68.0 °F 78% 30.00 in 10.0 mi SE 5.8 mph - N/A   Clear
11:53 PM 73.0 °F - 69.1 °F 87% 29.97 in 10.0 mi ESE 6.9 mph - N/A   Overcast